CW7386 Weather Reports


time (UTC)temp
C
wind
direction
speed
KPH
gust
KPH
rain 1hr
cm
rain 24hr
cm
rain mn
cm
humidity
%
barometer
mb
20260503224510 27 330 6.4 17.7 0.00 0.00 0.00 35 1010.8
20260503223003 27 13 4.8 11.3 0.00 0.00 0.00 34 1011.0
20260503221507 27 348 6.4 12.9 0.00 0.00 0.00 36 1011.3
20260503220012 26 302 6.4 19.3 0.00 0.00 0.00 37 1011.4
20260503214523 26 76 3.2 17.7 0.00 0.00 0.00 37 1011.5
20260503213014 26 9 3.2 14.5 0.00 0.00 0.00 39 1011.5
20260503211503 26 298 4.8 14.5 0.00 0.00 0.00 39 1011.6
20260503210035 26 288 6.4 14.5 0.00 0.00 0.00 36 1011.8
20260503204514 27 352 3.2 9.7 0.00 0.00 0.00 36 1011.9
20260503203018 27 90 1.6 12.9 0.00 0.00 0.00 36 1012.1
20260503201506 26 51 4.8 8.0 0.00 0.00 0.00 37 1012.2
20260503200015 25 9 4.8 12.9 0.00 0.00 0.00 39 1012.6
20260503194515 24 336 1.6 12.9 0.00 0.00 0.00 42 1012.7
20260503193017 23 352 8.0 17.7 0.00 0.00 0.00 42 1013.0
20260503191515 23 323 4.8 16.1 0.00 0.00 0.00 44 1013.2
20260503190005 22 329 6.4 17.7 0.00 0.00 0.00 46 1013.3
20260503184517 22 360 6.4 14.5 0.00 0.00 0.00 46 1013.6
20260503183023 22 315 9.7 17.7 0.00 0.00 0.00 47 1013.6
20260503181520 21 311 8.0 19.3 0.00 0.00 0.00 48 1013.8
20260503180018 22 352 9.7 17.7 0.00 0.00 0.00 47 1013.7
20260503174513 22 304 6.4 12.9 0.00 0.00 0.00 48 1013.7
20260503173014 21 107 1.6 14.5 0.00 0.00 0.00 51 1013.7
20260503171521 21 344 6.4 12.9 0.00 0.00 0.00 49 1013.8
20260503081530 13 70 0.0 0.0 0.00 0.00 0.00 73 1014.4
20260503071532 13 70 0.0 0.0 0.00 0.00 0.00 69 1014.2
20260503054534 16 70 0.0 3.2 0.00 0.00 0.00 59 1014.2
20260503053027 17 70 0.0 0.0 0.00 0.00 0.00 57 1014.2
20260503051510 17 70 0.0 0.0 0.00 0.00 0.00 1014.2
20260503050018 17 70 0.0 0.0 0.00 0.00 0.00 56 1014.1
20260503044536 18 70 0.0 0.0 0.00 0.00 0.00 54 1014.0
20260503043023 18 70 0.0 0.0 0.00 0.00 0.00 52 1014.0
20260503041529 18 70 0.0 4.8 0.00 0.00 0.00 51 1013.9
20260503040014 19 77 0.0 3.2 0.00 0.00 0.00 50 1013.6
20260503034522 19 352 0.0 4.8 0.00 0.00 0.00 48 1013.5
20260503033023 20 342 1.6 4.8 0.00 0.00 0.00 46 1013.2
20260503031525 20 345 1.6 6.4 0.00 0.00 0.00 46 1013.1
20260503030030 20 323 4.8 9.7 0.00 0.00 0.00 45 1012.9
20260503024518 21 44 1.6 6.4 0.00 0.00 0.00 45 1012.9
20260503023024 21 318 1.6 14.5 0.00 0.00 0.00 44 1012.9
20260503021526 21 338 8.0 20.9 0.00 0.00 0.00 45 1012.9
20260503020010 21 302 6.4 17.7 0.00 0.00 0.00 47 1012.9
20260503014516 22 323 4.8 22.5 0.00 0.00 0.00 48 1012.9
20260503013003 22 317 6.4 20.9 0.00 0.00 0.00 47 1012.9
20260503011506 22 319 8.0 20.9 0.00 0.00 0.00 48 1013.0
20260503010008 22 331 9.7 17.7 0.00 0.00 0.00 47 1013.1
20260503004512 23 336 3.2 17.7 0.00 0.00 0.00 47 1013.2
20260503003017 23 341 6.4 17.7 0.00 0.00 0.00 48 1013.1
20260503001504 23 319 12.9 22.5 0.00 0.00 0.00 49 1013.1
20260503000008 23 330 12.9 27.4 0.00 0.00 0.00 47 1013.2
20260502234512 23 24 6.4 14.5 0.00 0.00 0.00 47 1013.3
20260502233017 23 331 3.2 19.3 0.00 0.00 0.00 48 1013.6
20260502231512 23 349 3.2 19.3 0.00 0.00 0.00 50 1013.8
20260502230025 23 333 3.2 22.5 0.00 0.00 0.00 49 1014.1